Location: Biltmore Gardens
(41.6070°N, 83.4666°W)
Time: 14:03:45
(UTC+00:00)

Cosmos 2233 Rocket - Pass Details

Date: 14 July 2020
Orbit: 954 x 990 km, 82.9° (Epoch: 04 August)

Event Time Altitude Azimuth Distance (km) Brightness Sun altitude
Exits shadow 07:53:28 29° 184° (S) 1,681 4.8 -19.6°
Maximum altitude 07:56:49 87° 96° (E) 977 4.0 -19.3°
Drops below altitude 10° 08:03:06 10° 8° (N) 2,735 7.3 -18.6°
Sets 08:05:38 0° 8° (N) 3,692 8.1 -18.4°
